Tracking 23762 objects as of 20-Oct-2021
HD Live streaming from Space Station
objects crossing your sky now

COSMOS 2491 DEB

Track COSMOS 2491 DEB now!
10-day predictions


NORAD ID: 47111
Int'l Code: 2013-076AG
Perigee: 1,444.2 km
Apogee: 1,516.2 km
Inclination: 82.5 °
Period: 115.4 minutes
Semi major axis: 7851 km
RCS: Unknown
Launch date: December 25, 2013
Source: Commonwealth of Independent States (former USSR) (CIS)
Launch site: PLESETSK MISSILE AND SPACE COMPLEX (PKMTR)

Note: This is SATELLITE DEBRIS
aabbcc
Your satellite tracking list
Your tracking list is empty




NASA's NSSDC Master Catalog

Two Line Element Set (TLE):
1 47111U 13076AG  21290.89402090  .00001301  00000-0  86937-2 0  9997
2 47111  82.4736 146.3047 0045829  35.7181 324.6953 12.47951370 77773
Source of the keplerian elements: AFSPC